カタログに戻る

CZ-3C R/B

運用中HEO
NORAD 44232·ROCKET BODY·🇨🇳 China

打ち上げ May 17, 2019 から Xichang Satellite Launch Center

Loading…

次のパス (今後24時間)

TLE

最新Source: Space-Track

元期: Sep 14, 2026, 08:11 UTC

1 44232U 19027B   26257.34161644  .00024919  00000-0  16343-2 0  9999
2 44232  19.3965 149.9191 6311832 214.2117  81.2792  3.62925713 76231

AllMySatでCZ-3C R/Bをリアルタイム追跡

Download on the App Store